FENGYUN 1C DEB, 30492

Orbit data source: Space-Track

FENGYUN 1C DEB, 30492 is space debris in SSO originally from a launch on Mon, 10 May 1999 UTC launched from the Taiyaun Space Center, China (TSC). Fengyun 1C debris stems from the Chinese weather satellite Fengyun-1C, which was intentionally destroyed by a Chinese anti-satellite missile in 2007. This event dramatically increased the amount of space debris, with thousands of trackable fragments posing hazards to satellites and human spaceflight. The Fengyun 1C debris cloud has become a focal point in discussions about space sustainability and the need for international regulations to prevent the creation of new debris.

Loading next visibility...
Identifier
30492, 1999-025AHE
Orbit
SSO
Country
Flag of CNCN / PRC
Related business
Manufacturer
Unknown
Mission
Spacecraft
Bus & Motor
Unknown
Mass
Unknown
Launch date (UTC)
1999-05-10 (27 years ago)
Launch vehicle
Unknown
Launch site
Taiyaun Space Center, China (TSC)
Object type
Payload
Rocket body
Debris
Shape & HBR
Unknown shape, 0.1 m
Radar Cross Section
Medium (>0.1 m² and <1 m²)

Expand to show TLE details & history
Last TLE update: 13 hours ago

TLE from 13 hours ago
0 FENGYUN 1C DEB
1 30492U 99025AHE 26265.38577666  .00006731  00000-0  13373-2 0  9998
2 30492 102.3225  61.4981 0087313  29.0850 331.5159 14.60315988 10193
Epoch: 2026-09-22T09:15Z
TLE epoch observation values (Epoch: 2026-09-22T09:15:31.103Z)
Latitude
0.00004°
Longitude
-78.63351°
Altitude
640.836 km
Speed
7.566 km/s
True Right ascension
04h 05m 59s
True Declination
0° 00' 00"
Sunlit
Object was in full shadow at epoch
Visualization orbit readout
Latitude
Unknown
Longitude
Unknown
Altitude
Unknown
Speed
Unknown
Apparent Right ascension
Unknown
Apparent Declination
Unknown
Sunlit
N/A
Visualization observer readout
Local Sidereal Time
15:37:00
Azimuth
Unknown
Elevation
Unknown
Doppler factor
Unknown
Orbital elements
Apogee altitude
751.179 km
Perigee altitude
627.76 km
Semi-major axis
7,067.607 km
Eccentricity
0.00873
Inclination
102.3225°
RAAN
61.4981°
Arg. of periapsis
29.085°
True anomaly
331.03412°
Mean anomaly
331.5159°
Eccentric anomaly
331.27547°
Mean motion
3.65287 °/min
Orbital period
98.55 mins
BSTAR
0.0013373
Loading maneuver chart data...
Computing Atmospheric mass density...

Documentation

Showing up to 5 results
|